Location: Unspecified
(0.0000°N, 0.0000°E)
Time: 15:05:38
(UTC+01:00)

Cosmos 1295 Rocket - Visible Passes

Search period start: 12 February 2016 00:00
Search period end: 22 February 2016 00:00
Orbit: 945 x 993 km, 82.9° (Epoch: 10 February)

Date Brightness Start Highest point End Pass type
(mag) Time Alt. Az. Time Alt. Az. Time Alt. Az.
12 Feb 4.7 04:58:24 66° SE 04:58:24 66° SE 05:03:53 10° S visible
13 Feb 5.0 05:22:52 41° SW 05:22:52 41° SW 05:27:07 10° S visible
14 Feb 6.8 04:02:39 17° SE 04:02:39 17° SE 04:04:25 10° SE visible
14 Feb 5.9 05:47:15 19° SW 05:47:15 19° SW 05:49:28 10° SSW visible
15 Feb 6.4 04:26:56 21° SSE 04:26:56 21° SSE 04:28:56 10° SSE visible
16 Feb 6.4 04:51:09 18° S 04:51:09 18° S 04:52:30 10° S visible
17 Feb 6.7 05:15:18 10° SSW 05:15:18 10° SSW 05:15:19 10° SSW visible
